TimeEST,TemperatureF,Dew PointF,Humidity,Sea Level PressureIn,VisibilityMPH,Wind Direction,Wind SpeedMPH,Gust SpeedMPH,PrecipitationIn,Events,Conditions,WindDirDegrees,DateUTC
12:54 AM,30.9,19.9,64,30.18,10.0,North,6.9,-,N/A,,Clear,350,2012-11-06 05:54:00
1:54 AM,30.0,19.9,66,30.17,10.0,North,6.9,-,N/A,,Scattered Clouds,360,2012-11-06 06:54:00
2:54 AM,28.9,19.9,69,30.17,10.0,North,5.8,-,N/A,,Scattered Clouds,350,2012-11-06 07:54:00
3:54 AM,28.9,19.9,69,30.17,10.0,North,6.9,-,N/A,,Scattered Clouds,350,2012-11-06 08:54:00
4:54 AM,28.9,19.9,69,30.18,10.0,North,4.6,-,N/A,,Partly Cloudy,360,2012-11-06 09:54:00
5:54 AM,27.0,19.9,75,30.18,10.0,North,5.8,-,N/A,,Clear,350,2012-11-06 10:54:00
6:54 AM,28.9,19.9,69,30.19,10.0,North,6.9,-,N/A,,Clear,10,2012-11-06 11:54:00
7:54 AM,33.1,21.9,64,30.21,10.0,North,6.9,-,N/A,,Clear,10,2012-11-06 12:54:00
8:54 AM,37.0,25.0,62,30.20,10.0,NNE,11.5,-,N/A,,Partly Cloudy,20,2012-11-06 13:54:00
9:54 AM,43.0,28.0,56,30.21,10.0,NNE,10.4,17.3,N/A,,Scattered Clouds,30,2012-11-06 14:54:00
10:54 AM,45.0,28.0,52,30.21,10.0,ENE,11.5,20.7,N/A,,Mostly Cloudy,70,2012-11-06 15:54:00
11:54 AM,45.0,28.0,52,30.19,10.0,NE,11.5,-,N/A,,Mostly Cloudy,50,2012-11-06 16:54:00
12:54 PM,46.0,28.0,50,30.16,10.0,NE,11.5,-,N/A,,Clear,50,2012-11-06 17:54:00
1:54 PM,45.0,28.9,53,30.14,10.0,East,12.7,-,N/A,,Overcast,80,2012-11-06 18:54:00
2:54 PM,44.1,28.9,55,30.12,10.0,ENE,11.5,-,N/A,,Mostly Cloudy,60,2012-11-06 19:54:00
3:54 PM,43.0,28.0,56,30.12,10.0,ENE,11.5,-,N/A,,Overcast,60,2012-11-06 20:54:00
4:54 PM,41.0,28.0,60,30.14,10.0,NE,9.2,-,N/A,,Overcast,50,2012-11-06 21:54:00
5:54 PM,39.9,28.0,63,30.10,10.0,NNE,10.4,-,N/A,,Overcast,30,2012-11-06 22:54:00
6:54 PM,39.9,26.1,58,30.10,10.0,NNE,10.4,-,N/A,,Overcast,30,2012-11-06 23:54:00
7:54 PM,39.9,26.1,58,30.06,10.0,NNE,9.2,-,N/A,,Overcast,20,2012-11-07 00:54:00
8:54 PM,41.0,28.0,60,30.08,10.0,North,8.1,-,N/A,,Overcast,10,2012-11-07 01:54:00
9:13 PM,41.0,28.4,61,30.06,10.0,North,8.1,-,N/A,,Overcast,10,2012-11-07 02:13:00
9:54 PM,41.0,28.9,62,30.04,10.0,NNE,9.2,-,N/A,,Mostly Cloudy,20,2012-11-07 02:54:00
10:54 PM,39.9,28.9,65,30.03,10.0,North,8.1,-,N/A,,Scattered Clouds,360,2012-11-07 03:54:00
11:54 PM,39.9,28.9,65,29.99,10.0,North,9.2,-,N/A,,Mostly Cloudy,350,2012-11-07 04:54:00